Overview Statistics Trail Chart Weather Telemetry Raw packets
 

This is the latest recevied weather packets stored in our database for station/object BYNCTR-WX. If no packets are shown the sender has not sent any weather packets the latest 10 day(s).

<< 1 2 3 4 >>
Time Temp. Humidity Pressure Rain* Wind** Luminosity Snow
1788575465 21.11° C 90% 986.2 hPa 0 mm - - -
1788574565 20.56° C 90% 986.2 hPa 0 mm - - -
1788573666 21.11° C 90% 986.2 hPa 0 mm - - -
1788572765 21.11° C 89% 985.6 hPa 0 mm - - -
1788571870 21.11° C 89% 985.6 hPa 0 mm - - -
1788570967 21.11° C 89% 985.6 hPa 0 mm - - -
1788570064 21.11° C 89% 985.6 hPa 0 mm - - -
1788569164 21.67° C 86% 985.4 hPa 0 mm - - -
1788568273 21.67° C 86% 986.2 hPa 0 mm - - -
1788567364 22.22° C 86% 986.2 hPa 0 mm - - -
1788566471 22.78° C 86% 986.2 hPa 0 mm - - -
1788565566 23.33° C 82% 986.3 hPa 0 mm - - -
1788564666 23.89° C 85% 986.3 hPa 0 mm - - -
1788563766 23.89° C 85% 986.3 hPa 0 mm - - -
1788562870 23.89° C 85% 986.3 hPa 0 mm - - -
1788561966 24.44° C 82% 985.8 hPa 0 mm - - -
1788561067 24.44° C 81% 986.5 hPa 0 mm - - -
1788560166 25° C 81% 986.5 hPa 0 mm - - -
1788559271 25° C 81% 986.5 hPa 0 mm - - -
1788558373 25° C 84% 986.1 hPa 0 mm - - -
1788557472 25° C 81% 986.2 hPa 0 mm - - -
1788556572 25.56° C 81% 986.2 hPa 0 mm - - -
1788555672 25.56° C 81% 986.2 hPa 0 mm - - -
1788554771 25.56° C 84% 986.3 hPa 0 mm - - -
1788553871 25° C 82% 986.4 hPa 0 mm - - -

* Rain latest hour (hover to see other rain measurements)
** Current wind speed in m/s (hover to see current wind gust speed)